Regional Weather Roundup
Issued by NWS Green Bay, WI

Home | Current Version | Previous Version | Graphics & Text | Print | Product List | Glossary On
Versions: 1 2 3 4 5 6 7 8 9 10 11 12 13 14 15 16 17 18 19 20 21 22 23 24 25 26 27 28 29 30 31 32 33 34 35 36 37 38 39 40 41 42 43 44 45 46 47 48 49 50
000
ASUS43 KGRB 210300
RWRGRB

NORTH-CENTRAL AND NORTHEAST WISCONSIN REGIONAL WEATHER ROUNDUP
NATIONAL WEATHER SERVICE GREEN BAY WI
900 PM CST MON FEB 20 2017

WIZ005-009-010>012-018-019-210400-
NORTH CENTRAL WISCONSIN

CITY           SKY/WX    TMP DP  RH WIND       PRES   REMARKS
IRONWOOD       LGT RAIN  49  47  93 S12G18    29.66F
MANITOWISH WTR NOT AVBL
ARBOR VITAE    NOT AVBL
EAGLE RIVER    NOT AVBL
LAND O LAKES   LGT RAIN  46  45  99 S12       29.76R
RHINELANDER    LGT RAIN  48  48 100 S15G21    29.77R FOG
PHILLIPS       LGT RAIN  48  48 100 S10       29.72F
ANTIGO         NOT AVBL
TOMAHAWK       NOT AVBL
MERRILL        NOT AVBL
$$

WIZ013-073-210400-
NORTHEAST WISCONSIN

CITY           SKY/WX    TMP DP  RH WIND       PRES   REMARKS
IRON MOUNTAIN  LGT RAIN  41  38  89 SE14G20   29.80F FOG
MARINETTE      LGT RAIN  45  40  82 S15G22    29.84F
OCONTO         CLOUDY    44  40  86 S10G16    29.84F
$$

WIZ017-030-035>037-045-210400-
CENTRAL WISCONSIN

CITY           SKY/WX    TMP DP  RH WIND       PRES   REMARKS
MEDFORD        NOT AVBL
WAUSAU         RAIN      47  47 100 S9        29.78R FOG
MOSINEE        NOT AVBL
MARSHFIELD     LGT RAIN  51  50  96 S8        29.77F VSB 3/4
WISC RAPIDS    LGT RAIN  54  54 100 SW12      29.82R FOG
STEVENS POINT  NOT AVBL
WAUPACA        LGT RAIN  50  48  93 S6        29.83R
SHAWANO        DRIZZLE   50  46  88 S8        29.81F
CLINTONVILLE   DRIZZLE   46  45  93 S7        29.82S
WAUTOMA        RAIN      51  50  96 S8        29.84R FOG
$$

WIZ038-039-048-051-210400-
FOX VALLEY

CITY           SKY/WX    TMP DP  RH WIND       PRES   REMARKS
NWS GREEN BAY  LGT RAIN  51  46  83 SE20      29.83F
APPLETON       LGT RAIN  48  41  76 S13G21    29.82F
OSHKOSH        CLOUDY    51  45  79 S12       29.82F
FOND DU LAC    LGT RAIN  54  44  69 S13       29.83F
$$

WIZ022-050-052-210400-
EAST CENTRAL WISCONSIN

CITY           SKY/WX    TMP DP  RH WIND       PRES   REMARKS
EPHRAIM        NOT AVBL
WASHINGTON ISL LGT RAIN  42  37  79 S15G24    29.86F
STURGEON BAY   LGT RAIN  47  39  74 SE20G28   29.85F
MANITOWOC      NOT AVBL
SHEBOYGAN      CLOUDY    48  40  73 S17G28    29.89F
$$

LMZ563-521-522-541>543-210400-
LAKESHORE

STATION/POSITION TIME  TEMP    WIND        PRES    VSBY  WAVE
                       AIR SEA DIR/SP/G                  HT/PER
                 (UTC) (F)     (DEG/KT/KT) (MB)    (MI)  (FT/S)
SHEBOYGAN LKSHOR 0200   44     160/ 18/ 19 1013.4F
KEWAUNEE LKSHORE 0230   38     180/  7/  8 1012.1F
NORTHPORT PIER   0240   42     150/ 15/ 19 1011.5F
SISTER BAY LKSHO 0205   43     140/ 17/ 28   N/A
CHAMBERS ISLAND  0240   46     120/ 11/ 22 1010.2F
MENOMINEE LKSHOR 0230   41     170/  9/ 14 1010.0F
$$




USA.gov is the U.S. government's official web portal to all federal, state and local government web resources and services.